Weather History for Clinton, MO

Change the Weather History Date:

Saturday, April 12, 2014

  Actual Average (KSZL) Record (KSZL)
Temperature  
Mean Temperature 71 °F -  
Max Temperature 82 °F 63 °F 84 °F (2003)
Min Temperature 60 °F 43 °F 32 °F (1997)
Cooling Degree Days 6    
Growing Degree Days 21 (Base 50)    
Moisture  
Dew Point 57 °F    
Average Humidity 60    
Maximum Humidity 82    
Minimum Humidity 45    
Precipitation  
Precipitation 0.00 in - - ()
Sea Level Pressure  
Sea Level Pressure 29.78 in    
Wind  
Wind Speed 11 mph (South)    
Max Wind Speed 22 mph    
Max Gust Speed 30 mph    
Visibility 10 miles    
Events      
Averages and records for this station are not official NWS values.
T = Trace of Precipitation, MM = Missing Value Source: NWS Daily Summary

Daily Weather History Graph

Daily Weather History Graph

Search for Another Location

Airport:

Trip Planner

Search our weather history database for the weather conditions in past years. The results will help you decide how hot, cold, wet, or windy it might be!

Date:

Astronomy

Apr. 12, 2014 Rise Set
Actual Time 6:43 AM CDT 7:48 PM CDT
Civil Twilight 6:16 AM CDT 8:15 PM CDT
Nautical Twilight 5:43 AM CDT 8:48 PM CDT
Astronomical Twilight 5:10 AM CDT 9:21 PM CDT
Moon 5:29 PM CDT (4/12) 5:08 AM CDT (4/12)
Length of Visible Light 13h 59m
Length of Day
13h 05m
Waxing Gibbous, 93% of the Moon is Illuminated
Apr 12
Waxing Gibbous
Apr 15
Full
Apr 22
Last Quarter
Apr 29
New
May 6
First Quarter

Hourly Weather History & Observations

Time (CDT) Temp. Heat Index Dew Point Humidity Pressure Visibility Wind Dir Wind Speed Gust Speed Precip Events Conditions
12:15 AM 62.6 °F - 46.4 °F 55% 29.92 in 10.0 mi ESE 3.5 mph - N/A   Mostly Cloudy
12:35 AM 62.6 °F - 46.4 °F 55% 29.92 in 10.0 mi SE 6.9 mph - N/A   Mostly Cloudy
12:55 AM 62.6 °F - 46.4 °F 55% 29.92 in 10.0 mi SSE 5.8 mph - N/A   Scattered Clouds
1:15 AM 62.6 °F - 50.0 °F 63% 29.93 in 10.0 mi South 9.2 mph - N/A   Clear
1:35 AM 64.4 °F - 53.6 °F 68% 29.93 in 10.0 mi SSW 10.4 mph - N/A   Clear
1:55 AM 64.4 °F - 53.6 °F 68% 29.93 in 10.0 mi SSW 8.1 mph - N/A   Clear
2:15 AM 64.4 °F - 55.4 °F 73% 29.92 in 10.0 mi SSW 8.1 mph - N/A   Clear
2:35 AM 62.6 °F - 55.4 °F 77% 29.91 in 10.0 mi South 5.8 mph - N/A   Clear
2:55 AM 62.6 °F - 55.4 °F 77% 29.90 in 10.0 mi South 6.9 mph - N/A   Clear
3:15 AM 62.6 °F - 55.4 °F 77% 29.90 in 10.0 mi South 8.1 mph - N/A   Clear
3:35 AM 62.6 °F - 55.4 °F 77% 29.89 in 10.0 mi South 8.1 mph - N/A   Clear
3:55 AM 62.6 °F - 55.4 °F 77% 29.89 in 10.0 mi South 8.1 mph - N/A   Clear
4:15 AM 60.8 °F - 55.4 °F 82% 29.88 in 10.0 mi SSE 9.2 mph - N/A   Clear
4:35 AM 60.8 °F - 55.4 °F 82% 29.88 in 10.0 mi South 6.9 mph - N/A   Clear
4:55 AM 60.8 °F - 55.4 °F 82% 29.88 in 9.0 mi South 6.9 mph - N/A   Clear
5:15 AM 60.8 °F - 55.4 °F 82% 29.88 in 10.0 mi South 6.9 mph - N/A   Clear
5:35 AM 60.8 °F - 55.4 °F 82% 29.87 in 9.0 mi South 8.1 mph - N/A   Clear
5:55 AM 60.8 °F - 55.4 °F 82% 29.87 in 10.0 mi South 9.2 mph - N/A   Clear
6:15 AM 62.6 °F - 55.4 °F 77% 29.87 in 9.0 mi South 10.4 mph - N/A   Clear
6:35 AM 62.6 °F - 55.4 °F 77% 29.86 in 8.0 mi South 10.4 mph - N/A   Scattered Clouds
6:55 AM 62.6 °F - 55.4 °F 77% 29.86 in 8.0 mi South 9.2 mph - N/A   Partly Cloudy
7:15 AM 62.6 °F - 55.4 °F 77% 29.86 in 6.0 mi South 9.2 mph - N/A   Haze
7:35 AM 62.6 °F - 55.4 °F 77% 29.86 in 7.0 mi South 10.4 mph - N/A   Partly Cloudy
7:55 AM 64.4 °F - 57.2 °F 77% 29.85 in 7.0 mi South 12.7 mph - N/A   Partly Cloudy
8:15 AM 64.4 °F - 57.2 °F 77% 29.85 in 7.0 mi South 12.7 mph 18.4 mph N/A   Clear
8:35 AM 66.2 °F - 57.2 °F 73% 29.85 in 8.0 mi South 12.7 mph 18.4 mph N/A   Clear
8:55 AM 68.0 °F - 57.2 °F 68% 29.85 in 8.0 mi South 12.7 mph - N/A   Clear
9:15 AM 69.8 °F - 57.2 °F 64% 29.85 in 8.0 mi South 12.7 mph 17.3 mph N/A   Clear
9:35 AM 71.6 °F - 59.0 °F 64% 29.84 in 9.0 mi South 15.0 mph 18.4 mph N/A   Clear
9:55 AM 71.6 °F - 60.8 °F 69% 29.84 in 9.0 mi South 16.1 mph 21.9 mph N/A   Clear
10:15 AM 73.4 °F - 60.8 °F 65% 29.84 in 9.0 mi South 18.4 mph 25.3 mph N/A   Clear
10:35 AM 73.4 °F - 60.8 °F 65% 29.84 in 9.0 mi South 17.3 mph 23.0 mph N/A   Clear
10:55 AM 75.2 °F - 60.8 °F 61% 29.83 in 9.0 mi South 17.3 mph 24.2 mph N/A   Clear
11:15 AM 75.2 °F - 60.8 °F 61% 29.82 in 10.0 mi South 16.1 mph 26.5 mph N/A   Clear
11:35 AM 77.0 °F - 60.8 °F 57% 29.82 in 9.0 mi South 17.3 mph 24.2 mph N/A   Clear
11:55 AM 77.0 °F - 60.8 °F 57% 29.80 in 10.0 mi South 18.4 mph 26.5 mph N/A   Clear
12:15 PM 78.8 °F - 60.8 °F 54% 29.79 in 10.0 mi SSW 15.0 mph 26.5 mph N/A   Clear
12:35 PM 80.6 °F 81.5 °F 60.8 °F 51% 29.78 in 10.0 mi SSW 16.1 mph 24.2 mph N/A   Partly Cloudy
12:55 PM 80.6 °F 81.5 °F 60.8 °F 51% 29.77 in 10.0 mi South 15.0 mph 27.6 mph N/A   Partly Cloudy
1:15 PM 80.6 °F 81.8 °F 62.6 °F 54% 29.75 in 10.0 mi South 16.1 mph 23.0 mph N/A   Partly Cloudy
1:35 PM 80.6 °F 81.5 °F 60.8 °F 51% 29.74 in 10.0 mi South 20.7 mph 28.8 mph N/A   Partly Cloudy
1:55 PM 82.4 °F 83.4 °F 62.6 °F 51% 29.73 in 10.0 mi South 16.1 mph 21.9 mph N/A   Partly Cloudy
2:15 PM 82.4 °F 82.9 °F 60.8 °F 48% 29.72 in 10.0 mi SSW 19.6 mph 26.5 mph N/A   Clear
2:35 PM 82.4 °F 82.9 °F 60.8 °F 48% 29.71 in 10.0 mi South 17.3 mph 24.2 mph N/A   Clear
2:55 PM 80.6 °F 81.5 °F 60.8 °F 51% 29.70 in 10.0 mi South 19.6 mph 28.8 mph N/A   Partly Cloudy
3:15 PM 82.4 °F 82.9 °F 60.8 °F 48% 29.69 in 10.0 mi South 18.4 mph 25.3 mph N/A   Clear
3:35 PM 80.6 °F 81.5 °F 60.8 °F 51% 29.68 in 10.0 mi South 13.8 mph 25.3 mph N/A   Clear
3:55 PM 80.6 °F 81.5 °F 60.8 °F 51% 29.67 in 10.0 mi SSW 21.9 mph 27.6 mph N/A   Clear
4:15 PM 82.4 °F 82.9 °F 60.8 °F 48% 29.66 in 10.0 mi South 20.7 mph 28.8 mph N/A   Clear
4:35 PM 80.6 °F 81.1 °F 59.0 °F 48% 29.66 in 10.0 mi South 16.1 mph 29.9 mph N/A   Clear
4:55 PM 80.6 °F 81.5 °F 60.8 °F 51% 29.65 in 10.0 mi SSW 16.1 mph 27.6 mph N/A   Clear
5:15 PM 82.4 °F 82.5 °F 59.0 °F 45% 29.64 in 10.0 mi South 19.6 mph 28.8 mph N/A   Clear
5:35 PM 80.6 °F 81.1 °F 59.0 °F 48% 29.64 in 10.0 mi South 18.4 mph 24.2 mph N/A   Clear
5:55 PM 80.6 °F 81.1 °F 59.0 °F 48% 29.63 in 10.0 mi South 18.4 mph 24.2 mph N/A   Clear
6:15 PM 80.6 °F 81.1 °F 59.0 °F 48% 29.63 in 10.0 mi South 19.6 mph 27.6 mph N/A   Clear
6:35 PM 80.6 °F 80.8 °F 57.2 °F 45% 29.62 in 10.0 mi South 18.4 mph 27.6 mph N/A   Clear
6:55 PM 80.6 °F 81.1 °F 59.0 °F 48% 29.63 in 10.0 mi South 19.6 mph 26.5 mph N/A   Clear
7:15 PM 80.6 °F 80.8 °F 57.2 °F 45% 29.64 in 10.0 mi South 12.7 mph 26.5 mph N/A   Clear
7:35 PM 78.8 °F - 57.2 °F 47% 29.63 in 10.0 mi South 16.1 mph 25.3 mph N/A   Clear
7:55 PM 78.8 °F - 57.2 °F 47% 29.64 in 10.0 mi South 15.0 mph - N/A   Clear
8:15 PM 77.0 °F - 57.2 °F 50% 29.65 in 10.0 mi South 12.7 mph 20.7 mph N/A   Clear
8:35 PM 75.2 °F - 57.2 °F 53% 29.65 in 10.0 mi South 12.7 mph 19.6 mph N/A   Clear
8:55 PM 75.2 °F - 55.4 °F 50% 29.66 in 10.0 mi South 12.7 mph 20.7 mph N/A   Clear
9:15 PM 75.2 °F - 55.4 °F 50% 29.66 in 10.0 mi South 15.0 mph 21.9 mph N/A   Clear
9:35 PM 75.2 °F - 53.6 °F 47% 29.66 in 10.0 mi South 16.1 mph 27.6 mph N/A   Clear
9:55 PM 75.2 °F - 53.6 °F 47% 29.67 in 10.0 mi South 11.5 mph 24.2 mph N/A   Clear
10:15 PM 73.4 °F - 53.6 °F 50% 29.67 in 10.0 mi South 11.5 mph 20.7 mph N/A   Clear
10:35 PM 73.4 °F - 53.6 °F 50% 29.67 in 10.0 mi South 15.0 mph 19.6 mph N/A   Clear
10:55 PM 73.4 °F - 53.6 °F 50% 29.67 in 10.0 mi South 17.3 mph 24.2 mph N/A   Clear
11:15 PM 73.4 °F - 53.6 °F 50% 29.67 in 10.0 mi South 20.7 mph 25.3 mph N/A   Clear
11:35 PM 73.4 °F - 53.6 °F 50% 29.68 in 10.0 mi South 17.3 mph 23.0 mph N/A   Clear
11:55 PM 71.6 °F - 55.4 °F 57% 29.68 in 10.0 mi South 13.8 mph 25.3 mph N/A   Clear